Tracking 30986 objects as of 9-Jul-2025
HD Live streaming from Space Station
objects crossing your sky now

FENGYUN 1C DEB

Track FENGYUN 1C DEB now!
10-day predictions


NORAD ID: 35169
Int'l Code: 1999-025DMZ
Perigee: 600.0 km
Apogee: 817.3 km
Inclination: 99.2 °
Period: 98.8 minutes
Semi major axis: 7079 km
RCS: 0.0083 m2 (small)
Launch date: May 10, 1999
Source: People's Republic of China (PRC)
Launch site: Taiyaun Space Center, China (TSC)

Note: This is SATELLITE DEBRIS
Your satellite tracking list
Your tracking list is empty




NASA's NSSDC Master Catalog

Two Line Element Set (TLE):
1 35169U 99025DMZ 25183.41040195  .00001287  00000-0  25387-3 0  9998
2 35169  99.1516  50.8951 0153511 242.0073 116.5518 14.57426581634002
Source of the keplerian elements: AFSPC